Location: Burleson Fire Department Station 2
(32.5391°N, 97.3075°W)
Time: 13:56:49
(UTC+00:00)

NOAA 15 - Visible Passes

Search period start: 14 February 2026 00:00
Search period end: 24 February 2026 00:00
Orbit: 794 x 809 km, 98.5° (Epoch: 13 February)

Date Brightness Start Highest point End Pass type
(mag) Time Alt. Az. Time Alt. Az. Time Alt. Az.
14 Feb 6.4 01:46:23 10° SSW 01:50:59 32° W 01:55:37 10° NW visible
14 Feb 8.0 12:27:25 10° ENE 12:29:56 13° E 12:32:27 10° ESE visible
15 Feb 5.2 01:19:33 10° S 01:24:41 59° W 01:29:52 10° NNW visible
16 Feb 4.5 00:53:17 10° SSE 00:58:29 75° ENE 01:03:43 10° N visible
17 Feb 7.2 02:08:31 10° SW 02:12:11 19° W 02:15:52 10° NW visible
18 Feb 6.2 01:41:04 10° SSW 01:45:48 35° W 01:50:36 10° NNW visible
18 Feb 8.2 12:22:53 10° ENE 12:24:45 12° E 12:26:35 10° ESE visible
19 Feb 5.0 01:14:21 10° S 01:19:32 67° WSW 01:24:46 10° NNW visible
20 Feb 4.6 00:48:10 10° SSE 00:53:21 67° ENE 00:58:34 10° N visible
20 Feb 7.8 02:31:59 10° WSW 02:33:26 11° W 02:34:53 10° WNW visible
21 Feb 7.1 02:03:02 10° SW 02:06:59 22° W 02:10:58 10° NW visible
21 Feb 7.7 12:42:09 10° NE 12:46:00 20° E 12:49:49 10° SE visible
22 Feb 6.0 01:35:46 10° SSW 01:40:38 40° W 01:45:33 10° NNW visible
22 Feb 8.4 12:19:03 10° E 12:19:33 10° E 12:20:03 10° E visible
23 Feb 4.8 01:09:09 10° S 01:14:22 76° WSW 01:19:38 10° NNW visible
